• In Czech Republic
  • List of Countries
  • For 7 days
  • Water Temperature
  • Satellite Maps
  • Weather Map
  • Weather Widgets
  • user-avatar
    Login

    Hourly Weather Narman

    Today, 15 December, Friday

    Time Temperature Precipitation Wind Pressure Humidity
    00:00 0°C° 0 mm 1 mps 612 mmHg 50%
    01:00 0°C° 0 mm 1 mps 612 mmHg 50%
    02:00 0°C° 0 mm 1 mps 612 mmHg 50%
    03:00 -3°C° 0 mm 2 mps 612 mmHg 50%
    04:00 -3°C° 0 mm 2 mps 612 mmHg 50%
    05:00 -4°C° 0 mm 2 mps 612 mmHg 50%
    06:00 -4°C° 0 mm 2 mps 613 mmHg 51%
    07:00 -3°C° 0 mm 2 mps 613 mmHg 51%
    08:00 -3°C° 0 mm 2 mps 613 mmHg 52%
    09:00 -2°C° 0 mm 2 mps 614 mmHg 53%
    10:00 -1°C° 0 mm 2 mps 614 mmHg 55%
    11:00 +1°C° 0 mm 2 mps 614 mmHg 58%
    12:00 +3°C° 0 mm 1 mps 615 mmHg 60%
    13:00 +3°C° 0 mm 1 mps 615 mmHg 60%
    14:00 +3°C° 0 mm 1 mps 614 mmHg 60%
    15:00 +3°C° 0 mm 1 mps 614 mmHg 60%
    16:00 +1°C° 0 mm 2 mps 614 mmHg 58%
    17:00 -2°C° 0 mm 2 mps 614 mmHg 57%
    18:00 -3°C° 0 mm 2 mps 614 mmHg 56%
    19:00 -3°C° 0 mm 2 mps 614 mmHg 55%
    20:00 -4°C° 0 mm 2 mps 614 mmHg 54%
    21:00 -2°C° 0 mm 1 mps 615 mmHg 53%
    22:00 -4°C° 0 mm 2 mps 615 mmHg 52%
    23:00 -4°C° 0 mm 2 mps 615 mmHg 51%

    Tomorrow, 16 December, Saturday

    Time Temperature Precipitation Wind Pressure Humidity
    00:00 -4°C° 0 mm 2 mps 615 mmHg 50%
    01:00 -4°C° 0 mm 2 mps 615 mmHg 50%
    02:00 -4°C° 0 mm 2 mps 615 mmHg 49%
    03:00 -4°C° 0 mm 2 mps 615 mmHg 49%
    04:00 -4°C° 0 mm 2 mps 615 mmHg 48%
    05:00 -4°C° 0 mm 2 mps 615 mmHg 47%
    06:00 -5°C° 0 mm 2 mps 615 mmHg 47%
    07:00 -4°C° 0 mm 2 mps 615 mmHg 47%
    08:00 -3°C° 0 mm 2 mps 616 mmHg 47%
    09:00 -3°C° 0 mm 2 mps 616 mmHg 47%
    10:00 -1°C° 0 mm 2 mps 616 mmHg 49%
    11:00 +1°C° 0 mm 2 mps 616 mmHg 51%
    12:00 +2°C° 0 mm 2 mps 616 mmHg 54%
    13:00 +2°C° 0 mm 2 mps 616 mmHg 54%
    14:00 +2°C° 0 mm 2 mps 615 mmHg 54%
    15:00 +2°C° 0 mm 2 mps 615 mmHg 54%
    16:00 +1°C° 0 mm 2 mps 615 mmHg 53%
    17:00 -2°C° 0 mm 2 mps 615 mmHg 52%
    18:00 -3°C° 0 mm 2 mps 615 mmHg 51%
    19:00 -3°C° 0 mm 2 mps 615 mmHg 51%
    20:00 -3°C° 0 mm 2 mps 615 mmHg 50%
    21:00 -4°C° 0 mm 2 mps 615 mmHg 49%
    22:00 -4°C° 0 mm 2 mps 615 mmHg 49%
    23:00 -4°C° 0 mm 2 mps 615 mmHg 49%

    Day after tomorrow, 17 December, Sunday

    Time Temperature Precipitation Wind Pressure Humidity
    00:00 -4°C° 0 mm 2 mps 615 mmHg 48%
    01:00 -4°C° 0 mm 2 mps 615 mmHg 49%
    02:00 -4°C° 0 mm 2 mps 615 mmHg 49%
    03:00 -4°C° 0 mm 2 mps 614 mmHg 50%
    04:00 -4°C° 0 mm 2 mps 614 mmHg 50%
    05:00 -4°C° 0 mm 2 mps 614 mmHg 51%
    06:00 -4°C° 0 mm 2 mps 614 mmHg 51%
    07:00 -4°C° 0 mm 2 mps 614 mmHg 53%
    08:00 -3°C° 0 mm 2 mps 615 mmHg 54%
    09:00 -3°C° 0 mm 2 mps 615 mmHg 55%
    10:00 -1°C° 0 mm 2 mps 615 mmHg 56%
    11:00 +1°C° 0 mm 2 mps 615 mmHg 58%
    12:00 +2°C° 0 mm 2 mps 615 mmHg 60%
    13:00 +2°C° 0 mm 2 mps 615 mmHg 61%
    14:00 +2°C° 0 mm 2 mps 615 mmHg 63%
    15:00 +2°C° 0 mm 2 mps 615 mmHg 65%
    16:00 +1°C° 0 mm 2 mps 615 mmHg 67%
    17:00 -1°C° 0 mm 2 mps 615 mmHg 69%
    18:00 -2°C° 0 mm 2 mps 615 mmHg 71%
    19:00 -3°C° 0 mm 2 mps 615 mmHg 72%
    20:00 -3°C° 0 mm 2 mps 615 mmHg 73%
    21:00 -3°C° 0 mm 2 mps 615 mmHg 75%
    22:00 -3°C° 0 mm 2 mps 615 mmHg 76%
    23:00 -4°C° 0 mm 2 mps 615 mmHg 77%

    18 December, Monday

    Time Temperature Precipitation Wind Pressure Humidity
    00:00 -4°C° 0 mm 2 mps 615 mmHg 79%
    01:00 -5°C° 0 mm 3 mps 615 mmHg 80%
    02:00 -5°C° 0 mm 3 mps 615 mmHg 81%
    03:00 -5°C° 0 mm 3 mps 615 mmHg 82%
    04:00 -5°C° 0 mm 3 mps 615 mmHg 82%
    05:00 -3°C° 0 mm 2 mps 615 mmHg 83%
    06:00 -3°C° 0 mm 2 mps 615 mmHg 84%
    07:00 -3°C° 0 mm 2 mps 615 mmHg 84%
    08:00 -2°C° 0 mm 2 mps 615 mmHg 84%
    09:00 -2°C° 0 mm 2 mps 616 mmHg 84%
    10:00 -1°C° 0 mm 2 mps 616 mmHg 83%
    11:00 +2°C° 0 mm 2 mps 616 mmHg 82%
    12:00 +3°C° 0 mm 2 mps 616 mmHg 81%
    13:00 +3°C° 0 mm 2 mps 616 mmHg 81%
    14:00 +3°C° 0 mm 2 mps 615 mmHg 81%
    15:00 +3°C° 0 mm 2 mps 615 mmHg 81%
    16:00 +2°C° 0 mm 2 mps 615 mmHg 83%
    17:00 +1°C° 0 mm 2 mps 615 mmHg 85%
    18:00 -1°C° 0 mm 2 mps 614 mmHg 87%
    19:00 -1°C° 0 mm 2 mps 614 mmHg 87%
    20:00 -1°C° 0 mm 2 mps 614 mmHg 87%
    21:00 -1°C° 0 mm 2 mps 614 mmHg 88%
    22:00 -2°C° 0 mm 3 mps 614 mmHg 87%
    23:00 -2°C° 0 mm 3 mps 614 mmHg 87%

    19 December, Tuesday

    Time Temperature Precipitation Wind Pressure Humidity
    00:00 -2°C° 0 mm 3 mps 614 mmHg 87%
    01:00 -2°C° 0 mm 3 mps 614 mmHg 86%
    02:00 -2°C° 0 mm 3 mps 614 mmHg 86%
    03:00 -2°C° 0 mm 3 mps 614 mmHg 85%
    04:00 -2°C° 0 mm 3 mps 614 mmHg 85%
    05:00 -2°C° 0 mm 3 mps 614 mmHg 85%
    06:00 -2°C° 0 mm 3 mps 614 mmHg 85%
    07:00 -2°C° 0 mm 3 mps 614 mmHg 84%
    08:00 -2°C° 0 mm 3 mps 615 mmHg 83%
    09:00 -2°C° 0 mm 3 mps 615 mmHg 82%
    10:00 -1°C° 0.1 mm 3 mps 616 mmHg 80%
    11:00 0°C° 0.1 mm 3 mps 616 mmHg 78%
    12:00 +1°C° 0.1 mm 3 mps 616 mmHg 76%
    13:00 +1°C° 0.2 mm 3 mps 616 mmHg 77%
    14:00 +2°C° 0.2 mm 2 mps 616 mmHg 78%
    15:00 +2°C° 0.2 mm 2 mps 616 mmHg 79%
    16:00 +1°C° 0.2 mm 2 mps 616 mmHg 82%
    17:00 -1°C° 0.2 mm 2 mps 616 mmHg 84%
    18:00 0°C° 0.2 mm 1 mps 616 mmHg 87%
    19:00 0°C° 0.1 mm 1 mps 616 mmHg 87%
    20:00 0°C° 0.1 mm 1 mps 617 mmHg 88%
    21:00 0°C° 0.1 mm 1 mps 617 mmHg 88%
    22:00 0°C° 0.1 mm 1 mps 617 mmHg 88%
    23:00 -1°C° 0.1 mm 1 mps 617 mmHg 87%

    20 December, Wednesday

    Time Temperature Precipitation Wind Pressure Humidity
    00:00 -1°C° 0.1 mm 1 mps 617 mmHg 87%
    01:00 -1°C° 0.1 mm 1 mps 617 mmHg 87%
    02:00 -1°C° 0.1 mm 1 mps 617 mmHg 87%
    03:00 -1°C° 0.1 mm 1 mps 617 mmHg 88%
    04:00 -1°C° 0.1 mm 1 mps 616 mmHg 87%
    05:00 -1°C° 0.1 mm 1 mps 616 mmHg 87%
    06:00 -1°C° 0.1 mm 1 mps 616 mmHg 87%
    07:00 -1°C° 0.1 mm 1 mps 616 mmHg 86%
    08:00 0°C° 0.1 mm 1 mps 617 mmHg 85%
    09:00 0°C° 0.1 mm 1 mps 617 mmHg 84%
    10:00 +1°C° 0.1 mm 1 mps 617 mmHg 83%
    11:00 +1°C° 0.1 mm 2 mps 616 mmHg 81%
    12:00 +2°C° 0.1 mm 2 mps 616 mmHg 80%
    13:00 +2°C° 0.1 mm 2 mps 616 mmHg 80%
    14:00 +2°C° 0.1 mm 2 mps 616 mmHg 81%
    15:00 +2°C° 0.1 mm 2 mps 616 mmHg 81%
    16:00 +1°C° 0.1 mm 2 mps 615 mmHg 84%
    17:00 +1°C° 0.1 mm 2 mps 615 mmHg 86%
    18:00 -1°C° 0.1 mm 2 mps 615 mmHg 88%
    19:00 -1°C° 0.1 mm 2 mps 615 mmHg 89%
    20:00 -2°C° 0.1 mm 2 mps 615 mmHg 89%
    21:00 -2°C° 0.1 mm 2 mps 615 mmHg 89%
    22:00 -2°C° 0 mm 2 mps 615 mmHg 88%
    23:00 -2°C° 0 mm 2 mps 615 mmHg 88%
    Show more